{"data":{"norad_id":59397,"intl_designator":"2024-062X","name":"STARLINK-31608","alt_names":[],"object_type":"PAYLOAD","status":"ACTIVE","operator":null,"country":"US","launch_date":"2024-04-02","launch_site_code":"AFWTR","launch_vehicle":null,"mission":null,"orbit_class":"UNKNOWN","rcs_meters":null,"size_class":null,"mass_kg":null,"dimensions":null,"purposes":["comms"],"wikipedia_slug":null,"has_3d_model":false,"image_url":null,"decayed_at":null,"tle_current":{"epoch":"2026-09-21T17:07:06.740544Z","epoch_age_seconds":60539,"freshness":"FRESH","line1":"1 59397U 24062X   26264.71327246  .00000248  00000+0  18459-4 0  9993","line2":"2 59397  53.1611  62.3056 0000731  77.3951 282.7133 15.34393418139670","mean_motion":15.34393418,"eccentricity":7.31e-5,"inclination_deg":53.1611,"raan_deg":62.3056,"arg_perigee_deg":77.3951,"mean_anomaly_deg":282.7133,"bstar":1.8459e-5,"rev_number":13967,"period_min":93.848160654714,"perigee_km":462.2227365165,"apogee_km":463.22287021976,"semimajor_km":6840.8598033681,"source":"CELESTRAK","updated_at":"2026-09-22T09:00:48.912397Z"}}}